| time (UTC) | temp F | wind direction | speed MPH | gust MPH | rain 1hr in | rain 24hr in | rain mn in | humidity % | barometer mb |
| 20260504001537 | 43 | 304 | 0.0 | 0.0 | 0.00 | 0.04 | 0.00 | 60 | 1005.3 |
| 20260504000037 | 44 | 306 | 0.0 | 0.0 | 0.00 | 0.04 | 0.00 | 58 | 1005.0 |
| 20260503234534 | 45 | 284 | 0.0 | 5.0 | 0.00 | 0.05 | 0.00 | 54 | 1004.8 |
| 20260503233032 | 46 | 293 | 0.0 | 2.0 | 0.00 | 0.05 | 0.00 | 51 | 1004.6 |
| 20260503231532 | 47 | 304 | 0.0 | 14.0 | 0.00 | 0.05 | 0.00 | 51 | 1004.5 |
| 20260503230032 | 48 | 236 | 0.0 | 9.0 | 0.00 | 0.05 | 0.00 | 50 | 1004.3 |
| 20260503224530 | 48 | 329 | 0.0 | 7.0 | 0.00 | 0.07 | 0.00 | 48 | 1004.1 |
| 20260503223030 | 49 | 175 | 3.0 | 12.0 | 0.00 | 0.07 | 0.00 | 47 | 1003.9 |
| 20260503221629 | 49 | 274 | 2.0 | 9.0 | 0.00 | 0.07 | 0.00 | 47 | 1003.8 |
| 20260503220029 | 51 | 35 | 2.0 | 15.0 | 0.00 | 0.07 | 0.00 | 45 | 1003.6 |
| 20260503214528 | 50 | 261 | 1.0 | 10.0 | 0.00 | 0.10 | 0.00 | 48 | 1003.4 |
| 20260503213032 | 50 | 360 | 2.0 | 10.0 | 0.00 | 0.10 | 0.00 | 48 | 1003.5 |
| 20260503211527 | 52 | 351 | 2.0 | 10.0 | 0.00 | 0.10 | 0.00 | 46 | 1003.3 |
| 20260503210026 | 52 | 307 | 0.0 | 18.0 | 0.00 | 0.10 | 0.00 | 46 | 1003.0 |
| 20260503204527 | 54 | 29 | 1.0 | 8.0 | 0.00 | 0.17 | 0.00 | 46 | 1002.8 |
| 20260503203026 | 51 | 246 | 1.0 | 12.0 | 0.00 | 0.17 | 0.00 | 49 | 1002.8 |
| 20260503201530 | 52 | 250 | 0.0 | 9.0 | 0.00 | 0.17 | 0.00 | 50 | 1002.8 |
| 20260503200031 | 53 | 163 | 1.0 | 9.0 | 0.00 | 0.17 | 0.00 | 47 | 1002.7 |
| 20260503194527 | 54 | 268 | 4.0 | 13.0 | 0.00 | 0.20 | 0.00 | 49 | 1002.7 |
| 20260503193018 | 52 | 273 | 2.0 | 7.0 | 0.00 | 0.20 | 0.00 | 53 | 1002.8 |
| 20260503191517 | 51 | 324 | 2.0 | 15.0 | 0.00 | 0.20 | 0.00 | 54 | 1003.0 |
| 20260503190019 | 51 | 55 | 4.0 | 11.0 | 0.00 | 0.20 | 0.00 | 57 | 1003.0 |
| 20260503184515 | 50 | 32 | 0.0 | 10.0 | 0.00 | 0.24 | 0.00 | 63 | 1003.1 |
| 20260503183014 | 50 | 298 | 0.0 | 7.0 | 0.00 | 0.24 | 0.00 | 63 | 1003.2 |
| 20260503181510 | 50 | 351 | 1.0 | 9.0 | 0.00 | 0.24 | 0.00 | 63 | 1003.2 |
| 20260503180135 | 48 | 341 | 1.0 | 8.0 | 0.00 | 0.24 | 0.00 | 66 | 1003.2 |
| 20260503174559 | 47 | 285 | 0.0 | 5.0 | 0.00 | 0.24 | 0.00 | 70 | 1003.4 |
| 20260503173059 | 47 | 62 | 1.0 | 10.0 | 0.00 | 0.24 | 0.00 | 72 | 1003.5 |
| 20260503171551 | 46 | 339 | 3.0 | 11.0 | 0.00 | 0.24 | 0.00 | 71 | 1003.5 |
| 20260503081600 | 41 | 21 | 0.0 | 0.0 | 0.00 | 0.28 | 0.00 | 95 | 1006.1 |
| 20260503071556 | 42 | 28 | 0.0 | 0.0 | 0.00 | 0.28 | 0.00 | 95 | 1006.4 |
| 20260503060138 | 43 | 5 | 0.0 | 3.0 | 0.00 | 0.28 | 0.00 | 95 | 1007.0 |
| 20260503054535 | 43 | 321 | 0.0 | 3.0 | 0.00 | 0.28 | 0.00 | 95 | 1007.2 |
| 20260503053039 | 43 | 311 | 0.0 | 0.0 | 0.00 | 0.28 | 0.00 | 95 | 1007.5 |
| 20260503051530 | 44 | 311 | 0.0 | 2.0 | 0.00 | 0.28 | 0.00 | 95 | 1007.7 |
| 20260503050032 | 44 | 311 | 0.0 | 0.0 | 0.00 | 0.28 | 0.00 | 95 | 1008.2 |
| 20260503044559 | 43 | 311 | 0.0 | 0.0 | 0.00 | 0.28 | 0.00 | 95 | 1008.4 |
| 20260503043022 | 44 | 311 | 0.0 | 0.0 | 0.00 | 0.28 | 0.00 | 95 | 1008.5 |
| 20260503041621 | 44 | 313 | 0.0 | 1.0 | 0.00 | 0.28 | 0.00 | 95 | 1008.6 |
| 20260503040019 | 44 | 351 | 0.0 | 0.0 | 0.00 | 0.28 | 0.00 | 95 | 1008.6 |
| 20260503034517 | 44 | 15 | 0.0 | 3.0 | 0.00 | 0.28 | 0.28 | 95 | 1008.4 |
| 20260503033016 | 44 | 334 | 0.0 | 0.0 | 0.00 | 0.28 | 0.28 | 95 | 1008.4 |
| 20260503031514 | 44 | 5 | 0.0 | 0.0 | 0.00 | 0.28 | 0.28 | 95 | 1008.6 |
| 20260503030016 | 44 | 5 | 0.0 | 0.0 | 0.00 | 0.28 | 0.28 | 95 | 1008.7 |
| 20260503024513 | 44 | 5 | 0.0 | 0.0 | 0.00 | 0.28 | 0.28 | 95 | 1008.6 |
| 20260503023012 | 44 | 325 | 0.0 | 0.0 | 0.00 | 0.28 | 0.28 | 95 | 1008.7 |
| 20260503021517 | 44 | 325 | 0.0 | 0.0 | 0.01 | 0.28 | 0.28 | 95 | 1009.0 |
| 20260503020012 | 44 | 325 | 0.0 | 0.0 | 0.01 | 0.28 | 0.28 | 95 | 1009.2 |
| 20260503014510 | 44 | 325 | 0.0 | 0.0 | 0.01 | 0.28 | 0.28 | 95 | 1009.4 |
| 20260503013009 | 44 | 15 | 0.0 | 0.0 | 0.02 | 0.28 | 0.28 | 95 | 1009.4 |
| 20260503011511 | 44 | 13 | 0.0 | 0.0 | 0.02 | 0.28 | 0.28 | 95 | 1009.5 |
| 20260503010009 | 45 | 355 | 0.0 | 0.0 | 0.03 | 0.28 | 0.28 | 95 | 1009.5 |
| 20260503004508 | 45 | 360 | 0.0 | 0.0 | 0.04 | 0.28 | 0.28 | 94 | 1009.4 |
| 20260503003008 | 45 | 351 | 0.0 | 0.0 | 0.03 | 0.27 | 0.27 | 94 | 1009.5 |